Flag for Norway Weather past 2 weeks in Hammerfest, Norway

Now
27 °F

Passing clouds.


Feels Like: 17 °F
Forecast: 25 / 29 °F
Wind: 10 mph from Southeast

Location: Hammerfest

Current Time: Oct 21, 2014 at 9:48:37 AM

Latest Report: Oct 21, 2014 at 8:50 AM


Visibility: N/A

Pressure: 29.92 "Hg

Humidity: 74%

Dew point: 19 °F

Location of HammerfestLocation

Historic Weather in Hammerfest — Graph

°F

Hammerfest temperature yesterday

Maximum temperature yesterday: 32 °F (at 10:50 AM)
Minimum temperature yesterday: 25 °F (at 6:50 PM)
Average temperature yesterday: 29 °F

Past Weeks' High & Low Weather Summary

 TemperatureHumidityPressure
High52 °F (Oct 6, 3:50 PM)100% (Oct 6, 11:50 PM)30.54 "Hg (Oct 6, 11:50 PM)
Low23 °F (Oct 15, 8:50 AM)52% (Oct 9, 5:50 PM)29.71 "Hg (Oct 20, 4:50 AM)
Average35 °F80%30.01 "Hg
* Reported Oct 6 8:50 AM — Oct 21 8:50 AM, Hammerfest, Weather by CustomWeather, © 2014

Note: Actual official high and low records may vary slightly from our data, if they occured in-between our weather recording intervals... More about our weather records

Advertising

Hammerfest weather history for previous 24 hours

 ConditionsComfort  
Time TempWeatherWind HumidityBarometerVisibility
8:50 AM
Oct 21
27 °FPassing clouds.10 mph74%29.92 "HgN/A
7:50 AM27 °FClear.14 mph74%29.89 "Hg10 mi
6:50 AM27 °FPassing clouds.15 mph69%29.86 "HgN/A
5:50 AM28 °FPassing clouds.9 mph64%29.86 "HgN/A
4:50 AM27 °FPassing clouds.10 mph69%29.83 "HgN/A
2:50 AM28 °FClear.15 mph64%29.83 "Hg10 mi
1:50 AM28 °FPassing clouds.13 mph64%29.83 "HgN/A
12:50 AM28 °FClear.13 mph64%29.83 "Hg10 mi
11:50 PM
Oct 20
28 °FClear.13 mph64%29.80 "Hg10 mi
10:50 PM28 °FClear.13 mph64%29.80 "Hg10 mi
9:50 PM28 °FPassing clouds.10 mph64%29.80 "HgN/A
8:50 PM28 °FClear.10 mph64%29.80 "Hg10 mi
7:50 PM28 °FClear.13 mph64%29.77 "Hg10 mi
6:50 PM25 °FPassing clouds.7 mph80%29.77 "HgN/A
5:50 PM27 °FPassing clouds.9 mph69%29.77 "HgN/A
4:50 PM27 °FSunny.6 mph80%29.77 "Hg10 mi
3:50 PM30 °FSunny.8 mph64%29.74 "Hg10 mi
2:50 PM30 °FPassing clouds.8 mph69%29.74 "HgN/A
1:50 PM30 °FSunny.12 mph80%29.74 "Hg10 mi
12:50 PM32 °FSunny.8 mph69%29.74 "Hg10 mi
11:50 AM30 °FPassing clouds.9 mph75%29.74 "HgN/A
10:50 AM32 °FSunny.12 mph69%29.74 "Hg10 mi
9:50 AM30 °FSunny.9 mph75%29.74 "Hg10 mi
Weather by CustomWeather, © 2014

See weather overviewHow to use our weather pages